Theta_e
341 342 343 342 342 342 342 342 342 342 342 341 341 341 339 337 333 331 330 332 332 336 333 335 344 342 344 345 346 347 348 348 348 349 350 350 350 346 342 343 342 344 344 344 344 345 346 345 346 348 349 349 351 351 350 348 349 349 348 349 349 349 349 348 347 346 347 347 347 346 346 346 345 346
344 343 343 343 343 344 342 341 342 343 342 340 340 340 340 339 336 334 331 331 333 336 335 334 339 342 341 342 343 344 345 346 347 348 347 347 348 342 341 341 341 341 342 341 340 341 342 343 343 343 343 344 346 348 349 349 349 348 348 348 349 349 348 347 346 346 346 346 346 346 345 345 344 344
346 344 342 343 344 345 345 344 342 343 342 341 340 340 340 338 339 336 335 329 337 334 338 338 337 338 340 338 339 341 343 344 345 347 348 347 344 343 344 341 340 338 338 338 337 336 336 336 337 338 339 340 341 343 344 346 347 347 347 348 348 347 347 346 344 345 346 346 346 345 345 344 343 343
347 346 344 344 343 344 345 345 345 345 345 343 340 340 339 339 339 339 336 332 332 338 336 338 340 338 340 340 339 340 340 342 344 345 346 347 346 345 346 343 339 337 335 335 335 333 332 332 334 336 337 339 341 342 342 341 342 342 343 344 344 344 345 343 343 344 345 345 344 344 343 342 342 341
349 348 346 346 345 345 343 344 345 345 345 345 343 341 340 339 338 337 335 332 332 337 338 338 340 342 340 339 341 340 340 342 343 344 345 346 344 343 344 344 341 338 335 333 332 332 331 331 332 334 336 337 339 340 341 340 339 338 338 338 337 337 339 338 339 342 343 343 343 342 342 341 340 339
350 350 348 347 347 346 343 343 342 343 343 344 343 343 341 340 339 338 337 335 334 333 338 337 341 341 342 342 343 342 340 340 342 341 342 343 344 343 343 343 342 339 336 332 330 330 331 331 331 332 334 335 336 337 337 337 335 335 335 333 332 333 332 333 336 339 340 340 341 340 339 339 339 338
351 349 349 348 349 347 345 344 343 343 343 343 343 344 344 343 342 340 339 338 336 335 337 341 339 340 341 341 343 344 342 345 344 343 341 340 342 344 343 343 341 339 336 333 331 330 330 331 331 331 333 334 333 333 332 331 331 332 331 330 332 332 332 332 334 337 337 338 339 340 339 339 338 337
351 349 349 349 349 349 347 347 346 344 343 343 343 343 344 344 344 343 340 339 338 339 336 340 340 341 340 341 343 344 344 342 343 341 343 343 342 342 343 343 343 340 336 334 333 332 330 330 330 329 330 330 329 328 328 328 328 328 328 329 329 329 329 329 330 334 333 333 335 337 338 337 336 333
353 351 350 351 351 350 347 347 346 347 345 344 343 342 343 343 344 343 342 341 340 338 337 338 341 342 341 342 343 343 341 343 342 343 342 342 343 344 342 343 343 340 336 335 334 332 331 331 330 329 329 329 328 328 327 327 327 327 327 327 327 328 328 328 326 328 329 329 330 329 331 333 333 331
356 354 353 352 352 350 348 348 349 349 347 346 344 343 344 343 343 343 343 342 341 339 338 339 338 341 340 340 340 344 343 340 339 341 342 343 342 342 341 341 342 343 343 343 341 335 333 333 330 330 330 329 328 328 327 326 326 325 324 322 322 325 326 327 327 326 326 327 328 329 328 329 329 329
356 355 355 354 354 352 351 350 350 350 349 347 346 346 345 345 343 342 342 342 341 340 339 339 340 339 341 342 338 342 344 343 341 339 338 338 342 342 341 341 343 343 342 342 340 340 339 338 336 329 326 328 328 329 328 327 325 324 322 320 320 321 322 323 325 326 324 325 325 324 322 324 327 328
357 357 356 355 355 354 353 352 352 352 350 350 348 348 347 346 344 343 343 342 340 339 339 338 338 339 339 340 341 341 340 338 338 339 338 336 337 340 343 342 341 343 343 343 342 340 338 337 335 329 329 329 330 330 330 330 329 327 323 321 323 323 322 321 322 323 322 321 320 320 320 319 324 326
358 357 357 357 356 356 353 343 343 344 343 351 349 349 349 347 346 344 343 342 341 340 339 338 340 339 338 339 339 338 339 337 336 341 340 338 339 340 340 341 344 343 343 343 342 343 343 343 343 343 342 341 335 333 332 334 333 329 324 323 324 325 323 321 321 322 321 320 319 318 319 319 320 323
357 357 358 358 354 344 343 340 335 331 331 333 346 351 351 348 347 345 344 343 342 341 339 339 340 338 338 339 340 339 340 342 342 340 339 336 338 340 338 338 342 344 342 341 340 342 345 342 343 344 342 343 344 341 338 337 336 333 327 325 324 324 324 322 321 320 320 319 319 318 317 318 320 320
356 357 358 359 358 353 344 345 334 330 329 328 328 330 334 340 350 348 345 345 344 342 341 342 341 340 340 341 343 342 341 342 341 339 340 339 338 337 335 333 340 345 343 341 340 340 346 345 341 342 342 342 343 343 342 336 333 330 329 327 325 324 324 324 322 321 320 319 318 318 316 317 318 318
357 357 357 358 359 359 359 358 355 343 332 327 326 326 326 327 329 333 346 348 347 346 343 343 343 343 342 342 344 343 343 342 342 342 341 339 339 336 335 336 335 344 344 342 340 339 345 343 340 339 340 342 342 342 338 334 333 330 328 327 326 325 324 324 324 324 322 321 320 320 319 319 320 318
357 358 357 357 359 358 353 355 358 359 357 334 325 325 325 325 325 326 326 328 344 350 348 346 346 346 345 344 345 346 346 346 343 343 341 339 338 336 335 336 338 342 344 342 337 335 337 338 336 335 337 339 340 339 335 333 333 330 328 327 327 326 324 324 324 324 323 321 320 320 319 319 319 318
358 358 357 357 357 359 359 359 359 358 358 358 355 346 339 339 337 326 322 322 322 329 341 346 346 348 350 346 347 349 349 346 343 343 339 338 336 336 336 340 340 343 342 337 333 331 334 336 335 334 336 339 339 340 336 330 330 330 328 327 326 325 324 323 323 323 323 321 320 319 317 317 317 316
358 358 358 358 358 358 359 359 357 358 358 358 357 356 356 354 351 351 346 340 336 336 335 340 344 346 348 348 349 350 351 350 347 345 341 341 340 341 342 341 341 340 341 339 335 329 333 338 334 334 336 338 339 340 333 329 328 328 327 326 326 324 323 323 323 322 322 321 319 318 317 316 315 314
358 358 358 358 357 358 358 347 334 339 356 358 357 356 356 356 356 356 345 338 339 344 344 343 342 343 346 337 346 349 349 349 349 346 344 343 343 339 336 335 339 339 340 341 336 332 333 338 334 334 338 338 336 339 340 332 327 326 326 326 325 323 321 321 321 321 321 321 319 318 315 314 313 311
357 357 358 357 357 357 357 343 332 329 330 353 355 355 355 355 355 355 357 337 328 327 326 325 327 328 327 327 325 323 322 332 334 336 336 337 339 337 334 335 337 338 341 339 340 336 334 337 336 334 336 336 336 337 338 340 330 325 324 324 323 322 321 320 319 320 320 320 319 318 317 314 312 312
356 357 350 356 357 357 356 337 329 328 333 347 351 352 352 352 353 354 357 357 353 327 323 324 324 323 323 322 322 322 322 322 324 333 333 338 339 336 336 335 338 341 342 340 342 335 334 338 338 335 336 337 337 337 338 340 337 327 322 320 322 321 320 319 318 319 319 319 318 317 316 313 312 317
354 355 352 347 346 350 348 332 327 324 332 349 351 352 352 351 352 354 357 355 354 353 348 347 347 347 335 342 344 343 328 325 329 335 337 339 338 336 336 337 337 336 339 343 343 334 335 336 338 337 334 332 336 339 339 339 339 336 332 330 327 321 320 319 317 316 317 318 317 317 314 312 313 318
352 353 354 349 331 326 326 324 322 321 321 344 351 352 352 352 351 355 345 343 342 340 342 342 344 345 347 348 348 349 349 347 347 344 345 344 342 339 338 337 337 335 338 344 343 337 338 339 337 340 336 333 332 337 339 338 338 336 334 333 330 325 323 321 318 315 315 315 315 315 314 311 313 317
350 352 353 355 339 324 319 317 316 315 315 321 343 349 350 352 345 327 338 341 342 341 342 341 342 343 344 343 344 344 345 344 345 346 347 347 345 342 340 338 337 337 340 345 335 342 338 340 337 338 336 335 334 334 336 337 337 335 335 334 333 333 328 327 324 323 315 313 313 313 312 311 311 315
351 351 352 354 343 327 321 316 313 310 313 311 330 339 324 320 318 331 332 332 333 336 338 338 339 339 339 338 339 338 338 339 339 340 340 341 342 346 346 344 341 339 340 348 329 342 340 338 339 336 336 334 333 334 332 331 336 336 336 335 334 333 329 328 329 327 324 322 320 315 315 311 312 313
351 353 355 348 321 310 306 305 305 307 308 312 327 316 314 314 313 317 329 331 332 334 335 336 335 335 336 335 335 336 336 337 338 337 338 338 339 340 341 343 344 344 346 348 348 345 342 339 341 338 336 336 333 333 332 330 330 334 333 333 333 332 329 330 328 327 325 323 323 315 311 310 311 312
354 353 348 334 307 303 302 304 307 308 309 325 313 310 311 311 313 328 332 333 333 332 332 332 332 332 333 333 333 333 334 333 335 334 334 335 336 336 337 337 339 340 341 342 345 348 346 341 340 340 340 336 333 331 330 334 332 329 329 332 332 331 329 330 329 328 326 325 324 319 315 313 313 313
346 329 312 306 305 305 304 306 308 309 311 311 310 311 312 320 333 332 332 332 331 330 330 330 330 330 331 331 331 333 333 333 332 332 332 333 333 333 333 333 335 335 335 337 340 342 343 343 341 341 340 338 335 334 334 333 330 327 330 328 327 329 329 330 330 327 325 325 323 318 316 314 313 315
315 309 308 307 310 313 318 327 330 330 329 316 316 318 322 331 330 330 330 330 329 329 329 328 327 328 329 329 330 331 330 329 328 329 328 328 328 329 329 328 329 331 332 334 335 337 338 340 341 340 338 337 337 335 335 333 328 327 329 328 329 328 328 329 329 326 325 324 322 320 319 317 315 315
325 322 325 324 318 318 319 322 324 326 324 328 328 329 330 330 329 330 330 329 329 328 327 327 328 328 329 329 329 328 328 328 329 330 328 327 326 326 326 325 324 326 330 332 333 336 337 338 340 340 335 334 335 335 335 334 329 326 328 330 326 319 323 327 327 325 324 323 321 320 318 317 317 319
329 326 319 319 328 328 328 328 329 328 328 328 328 329 329 329 329 327 324 323 329 328 328 327 327 327 328 327 328 328 327 327 328 329 327 325 324 325 325 323 322 324 326 330 333 336 338 338 339 339 337 335 332 334 336 334 329 326 327 329 327 326 324 324 324 324 324 322 319 316 316 316 316 316
328 328 327 326 327 328 327 326 326 326 328 329 329 329 329 329 328 328 328 327 327 327 326 325 325 325 326 326 328 327 326 326 326 328 326 326 324 324 324 322 322 323 323 326 330 333 336 338 340 340 339 339 338 337 334 328 327 328 327 326 325 322 322 325 325 323 322 319 316 314 312 313 315 315
327 327 328 327 326 326 326 325 325 326 327 328 328 329 323 327 328 327 326 326 326 326 325 325 325 324 325 324 325 324 324 324 325 325 321 324 325 323 322 321 322 324 325 326 328 331 334 336 337 339 340 340 335 331 333 330 326 327 328 327 325 320 321 322 322 320 320 318 314 311 310 311 314 315
328 327 326 325 325 324 325 325 325 325 326 326 326 327 327 327 326 324 325 325 324 325 325 325 325 324 324 323 323 322 322 322 323 324 325 325 324 322 321 321 321 323 325 326 328 330 332 332 334 333 331 326 326 326 324 326 327 326 326 325 323 320 318 318 318 319 318 316 315 311 310 311 312 314
326 327 325 325 324 325 324 325 326 326 326 326 326 325 325 325 325 324 324 323 325 325 325 323 323 323 323 322 322 322 321 321 322 322 322 323 321 321 321 321 322 323 326 327 328 330 332 332 332 328 324 323 324 321 317 318 321 325 321 318 318 318 317 317 317 315 313 313 313 311 308 308 310 313
325 325 326 325 325 325 324 325 326 326 326 325 325 325 324 323 324 324 325 324 325 324 324 323 324 323 323 322 321 320 321 321 321 321 321 322 321 321 320 320 321 322 322 322 324 325 328 330 330 327 324 321 320 312 309 317 313 314 323 316 315 315 313 312 311 310 312 312 311 311 309 309 311 313
325 325 325 325 325 325 325 325 326 325 325 324 324 324 324 324 324 324 325 325 324 324 325 325 323 323 323 322 320 320 321 321 322 321 321 321 319 318 319 319 319 319 320 321 321 322 323 323 322 321 321 319 314 310 309 311 312 311 310 315 313 313 314 312 310 309 310 312 311 312 311 310 312 313
324 324 324 324 324 325 325 325 325 324 324 324 324 324 323 323 323 324 324 324 324 324 324 324 323 322 322 323 320 320 320 320 320 320 320 320 319 318 318 319 318 319 318 317 318 318 318 317 316 315 314 312 310 310 310 308 307 311 310 309 313 312 312 311 309 310 309 309 309 309 310 312 312 313
324 325 324 324 324 325 325 325 324 324 324 324 324 324 323 322 323 324 324 323 323 323 323 323 322 321 324 323 321 321 321 321 321 321 321 320 319 318 319 320 319 318 317 316 315 316 316 315 316 315 314 313 314 315 314 313 313 314 313 312 309 312 312 312 311 310 309 310 309 308 308 310 309 309
324 324 324 325 325 325 325 324 324 324 324 325 324 321 323 323 323 323 323 323 323 323 323 323 322 323 323 323 323 321 320 320 321 321 321 322 319 318 316 316 318 318 316 315 315 315 315 318 320 315 320 318 318 318 314 311 309 310 310 312 307 308 310 313 313 311 309 310 310 309 309 308 307 307
324 323 324 325 325 325 325 324 324 324 324 324 324 322 321 321 322 314 321 322 323 323 323 323 322 322 324 324 323 321 321 321 321 321 320 321 321 320 318 319 319 319 317 315 315 318 322 324 322 320 319 320 318 313 309 310 308 308 310 311 313 309 309 309 310 312 314 313 311 308 307 306 307 305
324 324 324 325 325 325 325 325 324 323 323 322 322 321 321 322 323 322 323 323 323 323 323 322 322 322 323 324 323 322 322 321 321 321 321 321 321 321 321 321 321 321 321 320 321 321 322 323 322 319 316 314 313 313 309 310 310 311 312 312 313 315 316 312 309 310 311 312 311 314 315 311 307 304
324 325 324 324 324 323 323 323 322 321 321 321 320 321 321 321 322 322 322 323 323 323 323 322 322 323 324 324 323 324 324 322 322 322 321 320 321 321 320 321 321 322 322 321 321 320 320 320 321 321 315 313 314 312 311 311 311 312 312 313 314 315 315 316 317 312 313 311 308 308 310 311 311 311
321 321 320 319 318 317 317 317 317 318 318 318 319 319 319 319 320 321 322 322 322 322 323 323 323 324 324 323 323 324 324 317 320 323 322 322 322 321 321 320 320 320 321 322 321 320 321 320 320 320 318 317 317 314 313 313 312 312 312 313 313 315 317 317 314 313 313 313 309 308 309 309 310 309
Wind_Speed
6 5 6 6 6 5 3 3 3 3 3 3 4 5 6 5 4 4 5 6 4 3 5 3 3 5 6 6 5 5 6 8 8 7 7 7 6 10 12 13 13 14 15 15 15 14 15 15 14 15 15 14 14 14 13 13 13 13 12 12 12 12 11 10 9 9 8 7 7 7 8 8 8 8
5 5 4 4 5 4 3 4 4 4 4 4 4 5 4 5 5 4 5 8 4 5 3 4 4 1 4 4 5 5 6 7 9 7 7 7 8 13 14 14 14 14 15 15 15 15 15 15 15 15 15 15 15 15 15 14 14 14 14 13 13 12 13 11 10 9 8 7 8 8 8 8 8 8
5 6 7 5 5 4 4 3 3 3 4 4 4 4 3 4 5 5 4 7 4 3 3 3 4 4 3 4 4 4 6 7 9 8 7 8 12 14 12 14 15 15 16 16 16 16 16 16 15 15 15 15 16 16 16 16 15 15 15 14 13 14 13 12 10 9 9 9 8 7 8 8 8 9
5 6 7 7 6 5 4 4 4 4 4 4 4 4 4 4 4 4 5 7 13 3 4 5 4 4 5 4 5 6 6 5 10 7 7 9 9 9 8 14 16 17 17 17 17 17 17 17 17 17 16 16 16 17 17 16 16 16 16 15 15 14 13 12 10 9 9 9 8 7 7 8 9 8
6 7 8 8 7 5 5 5 4 4 4 4 4 3 3 4 3 5 6 7 12 7 3 5 4 1 2 3 6 7 6 6 6 8 8 8 8 8 8 9 15 17 18 18 18 18 18 18 18 18 18 17 17 17 17 17 16 16 16 16 15 14 13 12 11 10 8 9 8 8 8 9 8 7
5 6 7 8 6 5 6 5 5 5 4 4 4 4 5 5 5 6 6 7 6 14 3 4 2 4 3 5 3 7 7 7 5 7 7 7 8 8 8 8 9 16 17 18 19 19 18 18 18 19 19 18 18 18 18 17 17 16 16 15 15 14 13 12 11 10 10 9 8 8 9 9 7 6
6 6 7 8 6 3 5 5 5 4 5 4 5 6 5 6 6 6 7 6 8 10 11 4 5 5 4 7 7 6 6 6 5 6 7 8 7 7 8 8 8 13 16 18 18 19 19 19 19 19 19 19 19 18 18 17 17 16 16 15 15 14 13 12 12 12 11 9 9 9 9 9 8 7
7 8 7 8 6 5 6 6 5 5 5 6 6 7 6 7 8 7 6 7 8 8 11 9 7 5 4 6 6 5 5 6 5 6 7 6 7 8 8 9 9 12 17 18 18 19 19 19 19 19 19 19 18 18 18 17 17 16 16 15 15 15 14 13 12 13 12 11 10 10 10 10 9 7
7 7 8 8 5 5 6 6 6 5 7 6 6 7 6 7 6 4 5 6 6 7 9 12 7 5 6 5 5 4 5 5 6 6 8 8 7 7 9 8 9 13 15 16 17 17 18 18 19 19 18 18 19 18 18 17 17 17 16 16 16 15 15 14 13 13 12 11 11 11 10 10 9 8
7 7 8 7 6 6 7 7 6 6 8 6 6 7 7 6 4 6 6 6 6 6 8 8 10 7 7 8 8 5 4 6 7 8 8 7 7 7 7 9 7 6 7 6 9 12 15 18 20 19 18 19 19 19 18 18 18 17 17 17 16 16 15 14 14 13 12 12 12 12 12 11 10 9
9 9 8 7 6 7 8 8 8 7 6 5 7 8 7 6 6 6 6 5 6 7 7 7 8 8 7 6 11 7 4 6 7 8 11 11 7 7 8 8 5 6 8 11 14 13 11 14 14 17 20 20 20 20 19 18 19 18 18 17 17 17 16 15 15 14 14 13 13 13 13 12 10 9
7 8 8 8 8 8 8 8 7 6 7 5 7 7 6 6 6 7 5 5 6 7 7 7 9 8 8 6 7 4 3 5 7 8 7 11 12 8 6 7 7 6 6 8 8 11 12 13 16 16 17 19 20 21 19 20 20 21 20 19 19 18 17 17 16 15 15 14 14 14 13 12 11 10
7 9 10 9 8 9 11 12 11 10 9 6 7 8 6 7 6 6 5 5 6 6 7 7 7 8 7 7 8 8 7 8 13 7 6 9 9 8 8 8 7 7 7 6 8 8 8 8 8 8 7 11 18 18 21 17 20 21 20 20 20 19 19 18 17 16 16 15 15 15 14 13 12 10
8 9 8 9 12 12 13 14 15 15 14 14 11 11 7 7 6 6 6 6 6 7 7 8 7 9 9 7 8 9 9 9 8 8 7 8 8 5 8 10 6 6 7 8 9 9 4 7 6 6 10 11 11 9 11 11 15 19 21 21 20 20 19 19 18 18 17 16 16 16 15 14 13 10
8 7 8 8 10 11 12 13 15 15 16 16 17 19 17 13 11 10 11 12 11 10 12 12 10 9 11 11 8 9 12 10 11 11 9 8 6 6 7 12 8 7 9 7 8 8 1 4 9 10 11 11 10 12 13 22 24 23 23 22 22 21 21 20 20 19 19 18 18 17 17 15 13 11
7 7 7 7 6 8 10 9 9 12 16 17 17 19 19 18 18 15 13 12 11 12 14 13 13 10 12 14 12 11 10 13 13 10 8 8 6 9 12 11 12 4 7 6 3 4 1 8 13 13 15 14 13 15 21 27 26 26 25 25 24 24 23 23 22 22 20 20 19 19 17 16 14 13
8 7 7 7 7 7 12 10 9 9 10 13 18 19 19 18 18 17 18 19 17 13 14 14 16 13 13 15 14 13 15 13 13 10 7 5 6 12 13 13 13 7 5 5 1 10 15 12 13 14 15 14 13 15 23 28 27 28 28 27 27 27 26 26 25 24 22 22 21 20 18 17 16 15
8 9 8 8 8 7 8 8 8 8 10 9 8 10 9 9 14 15 17 20 23 18 12 14 15 16 11 15 17 16 12 14 12 8 7 9 14 12 12 14 14 3 11 11 9 10 15 12 11 15 15 10 11 12 15 19 22 23 23 24 25 26 26 27 27 26 24 23 22 21 20 18 18 16
10 9 8 9 10 10 8 8 10 9 9 9 7 9 11 11 11 9 9 11 11 11 11 16 16 17 16 17 19 17 14 13 11 9 9 16 16 11 10 13 12 5 10 11 10 16 17 9 12 15 14 11 11 12 15 19 22 24 23 23 23 23 24 24 25 25 24 23 23 22 21 19 19 17
10 10 10 10 10 11 11 13 15 14 12 9 9 9 9 9 8 9 10 16 16 13 12 12 14 14 19 19 17 17 16 13 9 5 6 10 11 11 14 15 11 10 10 14 14 14 14 11 13 15 14 12 14 13 13 17 22 23 24 22 22 23 22 22 23 23 23 23 23 23 22 20 19 18
10 10 11 11 10 11 12 14 15 16 13 9 9 11 11 10 8 8 8 15 20 20 21 23 22 24 23 21 20 20 21 16 14 10 7 11 12 12 15 15 13 14 9 12 15 14 15 12 12 14 14 13 14 13 13 12 17 22 20 22 24 24 24 24 24 23 23 24 23 23 22 21 20 19
10 12 15 14 12 12 13 16 15 15 10 8 10 14 14 13 9 9 11 9 9 16 21 22 20 19 19 19 22 23 23 23 15 11 16 17 12 14 13 15 14 13 9 12 12 12 16 12 10 13 14 12 13 13 13 14 9 14 18 24 25 25 25 25 25 24 24 24 24 24 23 21 20 12
10 10 11 16 15 14 15 17 13 10 9 8 9 13 11 12 12 10 10 9 11 6 6 7 9 11 14 14 14 14 20 21 18 14 14 12 10 14 15 14 14 13 12 11 13 14 14 12 13 12 11 12 14 10 13 13 11 12 11 14 17 23 24 25 24 25 24 24 24 24 23 22 19 8
9 10 10 11 16 18 18 14 12 10 12 9 7 8 10 10 14 4 3 3 3 5 13 14 13 14 13 10 11 11 11 12 13 12 12 12 11 14 14 14 13 14 12 5 14 14 13 11 13 10 13 13 11 8 10 12 11 11 12 12 11 18 22 22 20 25 23 23 24 23 23 23 19 10
8 8 9 9 11 13 13 15 15 14 13 11 7 7 11 12 7 9 8 3 3 5 9 12 12 10 10 10 11 10 9 11 10 10 9 10 10 12 14 15 15 15 15 11 13 12 13 11 13 11 13 13 16 11 6 8 10 12 13 14 12 12 11 10 8 11 19 25 26 27 25 24 23 16
8 10 9 7 5 7 7 8 7 8 9 10 7 7 8 9 9 6 4 5 3 5 7 9 9 9 9 10 10 10 10 10 11 11 12 12 13 12 12 13 16 16 17 9 15 15 15 15 14 14 13 12 15 14 11 7 8 11 11 11 13 12 13 12 9 10 9 8 11 17 20 25 23 21
11 8 6 3 7 9 10 9 8 7 7 5 4 4 5 6 6 4 2 2 3 3 4 5 8 8 8 8 9 10 10 11 11 12 12 13 14 14 14 15 16 17 17 13 12 14 15 17 15 17 17 15 16 14 14 13 9 9 11 12 13 13 14 15 16 12 10 12 11 21 20 23 23 21
5 4 4 5 9 10 10 10 9 7 7 4 6 6 5 5 3 2 1 0 2 4 4 5 5 7 7 8 9 10 11 13 14 15 15 15 15 15 14 16 17 18 20 18 16 15 16 18 17 15 18 18 17 16 14 11 6 10 13 12 12 12 11 13 15 15 14 13 10 9 8 8 8 12
3 5 10 11 10 9 10 11 10 8 7 7 5 5 4 4 1 1 0 1 2 3 3 4 5 6 7 8 10 11 12 14 14 13 12 13 15 15 15 16 16 17 14 13 15 15 16 17 18 17 17 17 18 18 17 17 13 12 13 13 11 11 14 15 15 15 14 14 15 13 12 11 8 8
9 10 10 11 11 9 8 7 4 4 4 4 4 3 2 1 1 1 0 1 1 3 4 5 6 7 7 8 10 12 12 13 13 12 12 13 13 13 13 15 14 13 15 15 15 15 16 16 17 17 19 18 17 20 17 14 10 12 13 16 14 8 9 11 11 12 13 13 13 14 11 12 12 11
6 7 6 6 7 8 10 9 5 5 3 4 3 2 1 1 1 1 1 1 2 3 4 5 6 7 9 10 10 10 11 11 11 9 12 12 13 14 13 14 17 15 11 13 14 13 13 13 14 16 19 16 15 16 15 11 8 10 13 12 12 14 14 13 12 12 13 13 12 10 9 9 8 8
6 6 7 9 6 6 5 4 4 4 3 2 2 2 1 1 1 1 2 3 3 3 4 6 7 8 9 9 7 9 11 12 12 9 10 12 13 13 14 14 16 14 13 10 11 12 12 13 13 14 16 16 17 16 14 15 15 14 12 11 11 6 12 15 13 13 13 14 13 11 11 10 10 8
6 6 5 6 5 4 4 4 4 3 2 2 2 2 2 1 1 1 1 1 2 3 4 5 6 7 8 8 8 10 12 12 13 9 10 11 12 14 12 14 15 13 14 12 10 11 9 10 11 14 14 14 16 17 13 8 8 10 12 11 11 8 10 12 14 14 14 15 14 12 9 7 8 8
7 6 6 4 5 4 4 4 3 3 2 2 1 2 2 1 1 1 2 2 3 5 5 5 6 7 8 10 11 11 13 13 13 13 11 14 13 13 14 15 15 13 12 12 12 11 11 11 11 11 12 12 5 6 5 10 9 10 10 12 12 11 10 10 10 14 13 15 16 13 9 6 5 6
6 6 6 5 4 4 5 5 4 4 3 2 1 1 1 1 3 4 3 4 5 5 5 5 6 7 8 9 10 11 12 13 14 14 11 10 12 13 14 14 14 15 13 12 12 12 10 11 10 10 5 2 2 5 15 10 7 6 6 7 8 11 11 10 13 13 13 9 13 14 11 8 6 4
6 5 7 7 6 5 5 5 4 4 3 3 2 1 2 2 3 3 4 5 4 5 5 6 7 8 8 9 10 10 11 10 12 13 13 12 12 12 12 12 12 13 13 12 12 12 11 11 10 10 5 2 2 2 5 18 14 7 12 9 8 7 9 10 9 11 12 10 11 12 11 9 7 4
7 6 6 7 6 6 5 5 4 4 3 2 1 2 2 2 2 3 4 5 3 3 4 5 5 5 6 8 9 10 11 11 12 11 12 13 12 12 12 13 14 13 13 12 11 12 11 10 8 6 2 3 3 7 8 5 18 20 5 12 10 10 13 13 13 12 8 11 10 9 9 9 7 6
8 8 7 6 6 6 5 4 4 3 3 2 1 1 1 2 3 4 4 3 4 4 4 4 5 5 5 6 9 10 11 11 10 11 10 12 13 13 13 13 12 13 12 12 12 10 8 7 7 7 7 6 6 7 6 6 6 12 18 8 14 10 10 15 14 13 9 7 9 6 6 8 8 8
6 7 7 7 6 5 5 4 3 3 2 1 1 0 1 2 3 3 3 4 5 5 4 4 4 4 5 6 8 8 9 10 11 11 11 10 10 11 11 11 11 11 13 14 13 14 13 11 9 8 10 12 10 7 8 11 11 10 16 18 11 14 10 13 14 11 10 10 8 6 7 4 8 13
6 6 6 6 5 5 4 3 3 2 2 1 0 1 1 2 2 3 4 5 5 4 4 4 5 4 4 5 6 8 6 7 8 9 10 9 8 9 9 9 10 11 12 15 15 14 15 16 14 10 10 13 12 11 12 12 9 10 12 12 16 20 15 14 16 17 12 9 9 10 7 5 6 3
5 5 5 5 5 4 4 3 3 2 2 1 0 0 1 1 2 3 3 4 4 4 4 4 5 4 4 5 5 6 6 7 7 7 8 7 8 8 10 10 11 12 11 12 13 13 14 12 13 16 12 9 7 8 12 13 13 9 10 7 9 11 12 11 10 10 9 9 9 9 8 8 7 5
5 5 4 4 5 5 4 4 3 2 2 1 1 1 1 1 2 3 3 3 3 3 3 4 5 5 4 4 4 5 5 5 6 7 7 7 6 7 9 8 7 7 8 10 11 9 8 8 9 9 9 7 7 14 12 10 10 9 7 7 7 11 13 13 13 12 11 9 8 7 6 6 7 5
4 5 5 4 4 4 4 4 3 2 2 1 1 1 2 3 3 4 4 5 4 4 4 4 4 4 4 4 4 5 5 5 6 6 7 7 7 7 6 6 5 5 5 4 4 4 6 6 7 7 9 10 9 11 12 9 7 8 8 7 7 7 8 10 9 9 11 9 7 7 7 8 7 5
5 5 5 4 4 4 4 3 3 2 2 2 2 2 3 3 4 3 3 4 4 4 4 4 4 4 3 3 3 2 3 4 4 5 6 6 6 6 7 7 7 6 6 6 6 7 7 8 7 6 9 9 7 10 10 10 9 7 7 7 5 6 6 5 6 7 7 12 14 11 7 4 2 8
4 4 4 4 4 4 4 3 3 3 3 3 3 3 3 3 3 3 3 3 4 4 4 4 4 3 3 3 3 3 3 3 3 3 4 4 5 5 6 6 6 6 6 6 6 6 6 6 6 6 7 6 5 7 8 8 8 7 7 8 6 5 4 6 8 7 5 3 10 13 7 4 3 7
Wind_Direction
206 210 203 213 226 223 192 203 206 189 172 188 185 183 191 173 234 289 291 276 258 275 200 227 284 206 214 223 214 216 224 231 223 222 229 232 234 235 233 235 238 239 240 240 241 240 241 241 241 242 244 245 244 243 242 244 246 248 250 252 254 258 259 260 259 257 257 261 267 269 276 282 285 286
199 215 216 209 229 213 185 200 199 185 188 185 191 197 192 168 210 219 274 287 192 258 234 210 260 245 237 233 232 216 231 230 226 224 224 230 234 237 234 235 235 237 239 240 240 240 240 240 240 240 241 243 244 243 243 243 243 245 247 249 250 250 254 254 254 259 265 266 270 270 274 277 277 276
191 210 221 210 227 207 208 195 195 196 186 201 188 212 170 193 200 210 214 288 278 167 268 250 239 249 233 228 239 233 234 231 224 229 228 228 237 238 239 237 237 236 236 237 237 238 239 239 239 239 239 240 241 242 243 243 244 245 246 246 248 250 251 255 258 262 263 263 262 261 266 268 269 269
198 208 220 219 219 205 199 205 200 201 202 184 192 180 181 202 202 189 206 233 268 198 247 272 255 232 246 216 224 238 241 228 225 228 230 232 229 236 238 239 235 235 234 234 234 234 236 237 238 238 239 240 241 242 241 242 244 245 246 248 249 251 253 255 256 256 254 255 257 257 259 262 264 269
207 210 222 227 220 188 203 213 205 208 203 189 193 173 173 199 189 190 204 240 269 274 194 258 264 263 220 253 213 237 240 238 228 229 232 230 230 230 232 236 235 232 232 232 232 233 233 234 235 238 239 240 242 244 244 243 243 245 246 248 249 251 253 253 252 252 247 246 248 246 249 252 257 262
210 212 224 235 222 187 208 205 216 215 213 204 202 199 192 202 205 193 202 232 244 279 248 264 227 255 193 254 193 216 230 241 230 232 232 233 228 233 234 234 237 232 232 231 231 231 232 232 233 235 237 239 241 243 246 246 245 245 245 246 247 248 248 247 245 245 242 240 235 236 243 246 248 253
208 218 226 236 222 181 205 215 223 210 222 214 220 224 203 217 215 197 204 215 251 264 278 225 259 232 216 215 239 218 232 242 228 239 239 234 229 228 233 237 241 233 229 231 231 231 231 232 233 233 235 237 238 241 244 245 246 245 243 242 243 244 243 239 237 235 234 226 223 227 231 232 231 234
205 220 229 238 223 198 212 221 215 211 213 214 220 227 226 220 229 213 193 216 236 265 281 271 255 262 249 254 238 243 235 242 238 233 252 244 244 235 227 229 235 234 230 229 230 230 230 232 232 233 234 235 236 237 239 241 243 242 240 240 239 239 237 232 229 228 225 219 217 223 224 221 222 218
211 217 224 236 219 194 219 229 226 211 210 213 214 227 227 224 232 219 213 223 218 246 259 274 271 265 256 258 268 222 248 245 241 247 243 239 235 237 238 237 238 246 238 234 233 232 232 234 235 234 234 235 236 235 234 236 238 239 237 235 234 233 231 227 223 222 219 214 215 217 217 218 216 213
215 219 226 233 217 206 213 231 229 219 222 210 222 230 233 232 228 234 235 226 231 234 252 265 282 269 268 277 259 234 209 247 266 264 250 241 233 240 250 237 232 228 230 223 231 233 232 232 234 234 233 234 235 236 234 232 233 234 232 230 230 229 227 223 218 215 213 212 211 212 214 215 214 208
225 231 230 230 218 219 221 229 234 232 224 218 229 228 234 224 218 234 238 232 239 242 256 260 253 267 259 250 274 258 193 233 238 261 275 271 236 216 229 249 222 228 240 238 234 231 222 224 228 229 230 231 230 232 232 229 228 228 225 224 224 224 222 217 214 211 209 208 208 208 210 211 206 197
221 223 228 228 222 220 223 225 236 221 232 215 236 233 222 219 217 231 233 235 239 249 249 249 266 261 266 257 247 261 235 264 251 225 237 267 271 255 228 225 237 226 224 239 236 231 233 234 230 231 230 229 231 232 231 226 223 221 219 216 218 218 216 213 210 208 207 205 202 204 205 203 199 197
221 235 237 232 226 224 231 228 230 227 220 219 238 249 213 227 221 230 233 231 241 245 250 260 257 263 261 255 264 264 247 232 255 266 186 244 256 265 269 252 212 219 223 234 241 235 218 222 222 219 222 224 225 227 225 226 219 219 215 213 213 213 212 210 207 206 205 202 199 200 200 195 194 195
223 227 229 234 235 230 229 229 229 230 226 223 229 249 232 227 222 224 231 239 230 246 254 253 258 266 262 252 247 255 254 256 261 254 228 242 259 269 264 272 233 201 208 230 242 246 208 223 240 225 233 232 213 213 212 216 216 217 213 211 210 209 209 207 205 204 202 199 197 197 195 190 190 186
230 229 229 237 237 232 233 234 233 233 228 227 232 240 244 237 234 249 251 256 254 257 262 266 262 255 269 266 255 255 266 258 250 254 252 251 266 265 278 282 282 178 195 211 243 265 190 208 238 231 231 229 209 213 214 219 217 214 208 207 206 206 206 205 203 202 198 195 194 193 192 189 183 184
235 235 235 232 229 230 232 230 230 231 232 232 232 237 243 244 240 234 237 250 258 252 259 263 259 260 265 269 270 267 262 263 259 250 255 257 276 286 270 259 264 246 165 202 219 300 55 222 228 233 231 226 218 211 216 216 214 209 207 202 201 202 202 201 200 199 194 192 191 191 190 187 179 183
232 236 237 241 234 238 235 234 235 239 239 226 228 234 240 247 244 240 240 243 244 255 258 261 264 256 264 269 262 252 259 262 268 273 283 328 255 240 258 266 271 265 148 78 160 233 236 229 238 240 241 234 235 231 221 218 212 209 205 200 199 198 198 197 197 196 191 188 187 188 189 185 178 183
227 229 232 238 245 237 233 232 231 234 239 246 230 230 223 234 246 240 237 242 245 244 248 256 261 261 247 260 265 258 253 259 268 295 289 264 260 259 254 261 263 238 147 178 196 248 248 232 240 245 251 234 242 241 245 230 224 220 215 207 203 200 198 196 194 193 188 185 184 185 186 184 177 182
233 232 227 235 242 247 239 234 230 232 238 240 240 244 245 239 246 240 227 232 228 226 226 242 248 257 257 258 265 273 270 257 251 239 242 255 261 272 275 267 258 199 185 178 187 239 251 229 233 242 246 242 233 233 237 226 221 219 216 212 208 205 203 199 196 192 187 183 182 182 183 182 178 183
235 233 231 236 241 246 245 241 229 230 240 244 248 249 248 249 245 244 232 239 243 232 229 231 240 245 251 254 261 268 278 283 272 148 195 263 262 264 265 266 261 241 198 196 206 240 249 227 233 248 246 245 246 238 235 224 217 217 214 210 208 206 203 202 199 194 188 183 181 181 181 180 178 182
236 233 232 231 240 244 245 244 232 229 226 243 247 257 261 259 258 256 250 232 238 243 244 247 249 254 258 266 271 276 278 276 280 292 264 256 263 257 260 261 260 253 206 214 216 231 251 237 228 248 251 243 245 242 237 233 215 212 208 207 209 205 202 199 197 194 188 183 181 180 180 179 178 182
238 238 232 230 235 240 245 244 234 231 214 233 244 260 265 266 258 258 253 258 248 232 243 252 263 274 282 281 276 274 273 272 271 263 269 263 257 260 254 260 259 261 225 226 210 231 241 248 227 240 251 255 245 243 242 237 205 194 205 208 207 207 203 198 194 191 187 182 180 180 177 177 176 175
237 241 237 231 232 237 243 245 244 233 204 226 233 253 264 268 265 253 261 264 272 301 327 305 285 265 258 261 265 263 260 259 255 243 250 267 254 263 265 263 270 269 253 229 188 225 243 236 236 223 250 250 249 232 237 230 202 198 192 206 209 209 203 200 193 190 185 179 178 178 177 175 170 159
234 237 243 236 230 233 241 251 251 238 210 221 228 241 254 264 268 312 32 17 38 338 304 292 285 281 282 273 273 272 269 261 257 251 248 249 250 259 267 264 257 259 262 217 185 219 245 231 248 211 228 244 261 224 219 223 203 187 184 195 202 207 206 199 195 190 179 177 175 176 178 174 167 168
235 234 236 239 232 224 227 231 236 237 230 226 234 238 249 252 315 357 308 312 154 193 235 266 280 287 293 291 287 285 285 285 286 282 263 253 236 242 257 264 262 263 256 244 197 223 250 238 243 234 235 233 248 253 230 215 194 191 188 192 195 200 188 195 188 191 184 178 173 178 177 172 170 169
233 239 237 244 214 190 194 198 205 204 210 207 215 239 253 296 313 299 295 295 271 231 251 270 284 291 294 298 300 296 293 293 291 291 290 286 281 270 257 258 267 272 269 244 196 227 246 255 240 242 237 232 244 238 246 223 200 198 191 190 193 188 175 176 175 183 180 166 175 175 175 173 172 173
230 235 230 160 138 142 138 141 148 156 157 144 209 228 247 251 274 281 258 270 289 295 279 281 288 295 298 302 301 303 306 306 305 304 300 297 292 286 281 278 275 273 276 278 246 239 239 251 238 233 241 233 242 237 229 230 214 187 190 189 193 184 180 172 179 177 175 177 173 174 169 171 172 175
215 168 157 148 142 139 143 149 163 171 170 180 174 208 221 228 220 218 224 319 305 307 305 293 290 290 296 301 301 306 310 309 309 306 304 302 298 294 291 286 280 278 281 281 276 261 252 256 257 246 247 249 246 241 239 228 197 172 186 189 190 186 178 178 176 175 179 173 154 149 133 144 166 165
143 128 123 131 141 143 147 152 151 151 160 157 168 176 192 199 171 158 40 320 317 310 290 287 286 284 288 292 293 299 302 302 300 300 304 301 298 295 294 288 282 281 277 274 272 268 265 263 265 263 254 249 248 243 236 229 195 185 180 169 188 189 182 184 181 173 168 169 164 160 165 157 155 161
131 133 133 134 131 130 133 127 116 118 125 134 125 121 135 147 142 144 153 297 272 291 294 298 297 293 297 302 307 303 302 305 303 305 304 305 304 305 303 299 287 278 282 280 273 271 268 267 269 271 265 258 249 250 245 239 209 187 179 184 185 152 169 171 171 164 159 164 161 163 161 163 163 162
121 128 133 123 115 107 102 100 104 101 114 108 97 101 141 126 145 173 195 277 294 284 293 295 299 307 309 308 308 310 311 302 300 306 307 304 304 306 302 294 292 295 282 275 274 265 264 263 264 266 268 266 260 252 251 242 216 181 186 182 148 172 180 173 168 164 165 152 142 139 144 140 146 159
126 118 111 108 106 106 97 103 91 84 82 115 130 113 111 83 74 307 267 246 250 276 304 307 305 310 312 313 307 315 317 311 309 310 312 311 309 307 307 302 298 298 294 281 271 263 256 260 263 265 265 267 265 259 247 230 210 187 176 178 180 162 145 161 160 160 153 140 137 146 150 151 154 160
108 108 108 112 117 115 121 109 110 112 128 108 112 106 85 81 95 50 359 12 356 342 324 320 317 315 322 316 316 322 321 319 319 317 317 315 313 313 307 300 298 301 302 301 291 287 278 266 254 258 262 261 253 253 244 213 186 177 171 167 168 159 164 157 158 153 148 138 144 145 140 145 154 149
127 129 123 126 129 133 129 129 122 122 107 88 55 53 41 65 76 30 26 12 348 341 336 330 328 335 332 329 330 329 329 327 330 331 331 327 326 318 320 316 313 307 303 301 299 293 292 286 282 273 260 261 310 329 260 202 170 175 174 169 162 151 157 150 149 146 146 144 137 132 132 135 129 145
136 137 132 126 120 122 125 125 129 126 112 96 93 46 10 22 29 19 7 354 342 344 342 338 345 342 337 330 330 331 335 334 334 336 333 326 329 328 325 319 315 319 314 309 304 299 293 292 285 282 284 64 74 49 28 18 172 136 131 132 149 150 149 140 138 142 131 130 128 131 134 129 141 145
115 121 128 134 134 134 127 127 121 115 111 96 71 35 19 27 22 353 348 338 336 345 346 350 351 348 343 339 335 338 339 335 339 341 338 337 333 329 329 323 315 318 318 314 314 308 301 290 288 283 278 282 198 121 35 13 18 151 136 133 121 118 114 115 113 111 114 121 125 127 129 142 146 153
121 129 132 129 132 133 127 128 126 125 119 113 85 42 13 339 337 327 326 313 317 342 356 352 349 335 337 345 342 344 346 345 343 339 340 337 335 334 335 339 343 340 338 338 333 331 327 312 298 270 178 137 54 61 36 337 27 24 133 121 116 131 130 120 106 88 96 120 115 121 134 135 146 179
130 131 125 125 128 128 129 132 134 124 122 104 75 348 301 303 315 320 319 335 355 359 358 1 348 339 339 354 357 351 348 348 344 345 343 346 351 352 354 354 352 352 347 349 351 345 343 2 9 16 45 51 74 69 61 17 28 20 27 82 117 117 116 114 103 108 93 77 96 75 94 126 163 179
112 122 122 130 133 136 134 131 125 118 108 112 128 282 316 313 318 321 345 4 4 1 354 343 345 341 343 359 3 358 354 352 352 350 352 354 355 355 1 5 8 6 12 17 12 13 10 15 40 62 69 79 72 72 78 84 62 58 51 48 90 99 91 99 105 104 114 113 108 90 59 71 77 79
112 116 126 130 135 130 119 117 117 118 120 131 245 355 317 315 316 340 358 7 0 354 347 347 345 337 2 4 2 4 352 349 349 355 1 1 358 9 14 12 18 12 20 26 27 22 25 24 16 21 69 90 108 109 107 97 90 78 81 78 107 114 116 127 142 152 148 124 112 98 127 146 100 15
120 119 123 126 122 120 120 122 120 127 131 139 94 203 310 305 333 2 0 350 347 345 345 351 2 5 8 2 6 6 354 345 339 346 353 351 9 15 12 14 26 20 23 22 20 17 17 14 13 20 41 70 75 97 86 90 94 96 88 65 28 53 80 78 98 97 113 131 126 132 134 124 126 110
124 122 124 121 121 126 122 121 123 134 141 142 131 22 5 20 33 332 336 344 351 339 343 359 5 5 7 9 358 359 359 343 339 338 341 346 359 13 23 27 29 12 30 30 20 16 356 1 15 27 15 20 57 83 68 65 75 68 68 60 62 57 66 78 87 103 121 125 133 129 102 85 79 107
121 122 125 122 116 119 118 119 127 127 119 75 52 31 30 35 38 31 18 357 350 348 355 0 8 8 358 1 359 358 350 350 349 336 333 342 346 354 2 11 21 30 33 35 31 22 17 18 13 36 49 54 45 73 87 78 74 82 79 73 65 64 50 51 78 123 134 137 130 137 159 140 120 177
126 123 120 118 110 100 94 96 90 80 67 64 52 41 36 33 34 33 18 357 351 346 344 355 359 8 358 351 344 333 358 354 338 337 343 341 343 350 347 351 350 4 18 21 16 17 16 19 11 20 65 66 66 83 97 103 99 92 94 90 92 83 86 94 92 102 85 55 37 33 59 112 189 166
118 105 95 77 76 68 64 58 58 56 52 43 42 36 31 30 27 25 9 356 348 344 350 353 356 351 350 348 345 347 347 342 331 331 330 340 351 349 353 355 356 357 9 5 14 21 14 19 18 26 48 42 36 83 94 103 107 110 107 115 111 112 130 138 138 138 115 103 23 20 8 22 102 137